User: anonymous   Login
Location: ??????????
(48.4699°N, 37.9573°E)
Time: 04:58:17
(UTC+00:00)
Language:

Iridium 4 Rocket - Orbit

View from above orbital plane
View from above orbital plane
View from above satellite
View from above satellite

Ground track
Ground track

The orbit data is extracted from the following two-line orbital elements,

1 24797U 97020F   21112.49214347  .00000122  00000-0  21499-4 0  9992
2 24797  86.9033 198.6391 0223028 311.3830  56.9816 14.44238435260723
Epoch (UTC): 22 April 2021 11:48:41
Eccentricity: 0.0223028
inclination: 86.9033°
perigee height: 585 km
apogee height: 903 km
right ascension of ascending node: 198.6391°
argument of perigee: 311.3830°
revolutions per day: 14.44238435
mean anomaly at epoch: 56.9816°
orbit number at epoch: 26072

The dashed part of the orbit path shows where the satellite is in the earth's shadow,  

DLR